Dewpoint
13 14 14 13 13 14 14 14 14 15 14 14 13 14 15 15 14 12 12 13 12 13 13 13 12 13 12 13 12 12 12 12 12 12 13 13 12 12 12 12 12 11 13
14 14 14 13 13 14 14 13 14 14 14 14 14 14 15 14 14 12 13 13 12 13 14 15 14 14 13 14 14 14 13 12 12 11 11 11 11 10 9 8 9 10 14
14 13 13 14 13 12 13 13 13 13 12 11 14 13 13 14 14 14 14 14 14 14 13 13 13 13 14 14 15 15 15 15 16 16 14 12 11 10 9 10 10 10 9
14 14 13 13 13 12 11 11 11 12 12 13 13 13 14 14 14 15 15 14 15 14 14 13 14 14 14 14 15 14 14 15 16 16 16 16 15 14 14 15 14 13 9
13 14 14 14 14 13 12 12 12 12 13 13 14 14 14 15 15 15 14 15 15 14 15 15 14 15 15 14 14 14 14 15 15 15 15 15 14 14 15 15 14 11 7
14 15 14 14 14 13 13 13 13 13 13 13 14 14 14 13 14 15 16 14 14 14 14 14 14 14 14 15 16 16 15 16 16 15 15 14 14 14 14 13 12 12 12
14 13 13 13 13 13 12 13 13 13 13 13 13 14 14 14 14 13 14 14 14 14 14 13 14 15 15 15 15 15 15 15 15 16 16 15 15 14 14 13 14 14 13
14 14 14 14 13 13 13 12 12 13 12 12 13 13 13 13 13 13 13 14 14 15 15 14 15 14 14 14 14 15 15 15 15 15 15 14 14 14 14 15 15 14 14
14 14 14 14 14 14 14 13 13 12 12 12 13 12 12 13 13 13 13 14 14 15 15 15 15 15 14 14 14 14 14 15 15 15 15 14 14 14 15 15 15 15 15
12 12 12 13 13 12 12 12 13 12 12 13 12 12 13 13 14 14 14 14 13 15 15 15 15 15 16 16 16 16 15 15 15 15 15 15 15 15 15 15 15 16 16
9 8 8 9 10 9 9 9 9 10 11 12 13 13 13 13 13 14 14 14 13 12 12 13 13 13 14 14 14 14 13 14 14 14 14 14 15 15 15 15 15 16 16
1 0 0 1 2 3 3 3 7 10 11 12 11 11 12 10 10 12 13 13 12 9 4 3 3 5 6 5 7 8 6 7 8 9 9 10 13 13 14 14 14 15 15
-4 -4 -4 -4 -3 -1 0 2 4 6 7 9 8 8 9 9 9 9 9 8 7 6 3 1 1 2 2 1 0 -1 -1 -1 1 2 3 3 4 7 7 7 10 15 15
-5 -6 -5 -4 -4 -4 -2 0 2 3 5 5 5 5 5 5 5 5 4 3 1 0 -1 -2 -3 -4 -4 -4 -4 -4 -4 -3 -2 2 5 6 6 5 5 7 8 11 14
-5 -5 -4 -3 -3 -2 -1 0 1 1 2 3 3 2 2 1 0 -1 -2 -3 -4 -3 -3 -4 -4 -5 -6 -7 -7 -7 -7 -6 -5 -1 4 7 8 9 9 12 12 12 14
-7 -6 -6 -5 -5 -5 -4 -4 -3 -3 -3 -3 -3 -4 -6 -7 -9 -10 -11 -12 -12 -13 -12 -11 -11 -11 -10 -8 -9 -10 -8 -6 -2 -0 3 8 11 12 13 14 14 14 15
-6 -7 -8 -10 -10 -10 -10 -10 -11 -10 -11 -11 -12 -12 -12 -13 -13 -13 -14 -14 -14 -14 -14 -14 -14 -14 -13 -13 -12 -11 -8 -5 -3 1 4 5 7 10 11 12 12 13 13
-8 -10 -11 -12 -12 -13 -12 -12 -11 -11 -12 -12 -12 -13 -13 -13 -14 -14 -15 -15 -15 -16 -16 -15 -15 -14 -13 -13 -12 -12 -12 -11 -10 -5 -0 2 2 4 5 8 9 10 10
-8 -11 -11 -11 -11 -11 -11 -11 -11 -12 -12 -13 -13 -14 -15 -15 -15 -15 -15 -15 -15 -14 -14 -13 -12 -12 -12 -11 -11 -11 -11 -10 -9 -7 0 1 2 3 2 2 3 5 6
-9 -10 -9 -9 -8 -9 -9 -10 -10 -11 -12 -13 -14 -15 -15 -15 -14 -14 -13 -13 -12 -12 -12 -11 -10 -10 -10 -9 -9 -9 -9 -9 -8 -7 -5 -3 -1 2 3 3 3 2 1
-8 -9 -8 -7 -7 -8 -9 -9 -10 -10 -11 -13 -14 -14 -13 -13 -12 -12 -11 -11 -11 -11 -10 -10 -9 -9 -8 -8 -7 -7 -7 -6 -7 -6 -6 -5 0 2 2 3 3 3 3
-7 -8 -8 -6 -6 -6 -7 -7 -7 -7 -8 -10 -11 -12 -11 -10 -10 -10 -10 -10 -10 -10 -10 -9 -9 -9 -8 -8 -7 -7 -6 -5 -4 -3 -3 -1 -0 -0 -0 -0 0 1 2
-6 -6 -6 -5 -4 -4 -4 -4 -4 -5 -6 -7 -9 -11 -10 -10 -10 -10 -10 -9 -9 -9 -9 -9 -9 -9 -9 -8 -7 -7 -6 -5 -4 -4 -4 -4 -3 -2 -1 -1 -1 -0 -0
-5 -5 -5 -4 -4 -3 -3 -3 -3 -3 -3 -5 -8 -10 -10 -10 -10 -10 -9 -9 -8 -9 -9 -9 -9 -9 -9 -8 -8 -7 -6 -5 -5 -4 -4 -4 -3 -3 -3 -2 -1 -1 -1
-5 -6 -5 -4 -4 -4 -3 -3 -2 -2 -2 -4 -7 -8 -8 -9 -9 -10 -10 -9 -8 -8 -8 -8 -8 -8 -8 -8 -7 -6 -6 -5 -5 -5 -4 -3 -3 -3 -3 -3 -2 -2 -2
-3 -5 -4 -4 -3 -2 -2 -2 -2 -2 -2 -4 -7 -7 -6 -7 -7 -9 -10 -10 -8 -7 -7 -7 -8 -8 -8 -7 -7 -6 -5 -5 -5 -5 -4 -3 -2 -2 -2 -2 -2 -2 -2
Wind_Speed
24 22 21 20 21 19 16 13 11 9 9 9 7 7 7 7 7 9 10 11 10 8 8 9 9 10 11 10 10 11 11 11 13 16 18 18 19 20 20 20 22 19 15
25 22 19 19 21 21 18 14 15 15 15 13 12 11 9 7 8 6 7 9 9 9 8 9 7 9 9 10 10 10 11 12 14 17 19 20 22 24 25 20 17 16 17
20 21 18 18 18 21 22 20 18 17 15 16 16 14 10 8 7 9 10 9 10 10 10 10 9 10 7 7 9 9 9 10 11 15 17 18 19 18 16 14 15 15 15
9 16 15 14 14 15 17 17 16 15 14 13 15 14 14 13 13 13 14 14 13 14 13 13 11 10 11 10 11 11 12 12 14 17 17 18 17 16 18 20 19 18 17
20 15 9 8 7 11 13 14 16 16 16 15 16 17 16 16 15 14 15 16 16 15 16 14 13 12 12 12 12 13 14 16 18 19 18 21 21 19 20 21 23 24 23
21 20 17 11 6 4 2 8 13 15 16 17 17 17 17 18 17 15 15 15 15 16 16 15 15 15 14 14 15 15 15 17 18 19 21 22 21 22 22 25 26 28 32
17 17 17 19 20 15 14 9 7 6 10 12 16 17 15 18 19 19 19 17 17 17 18 18 17 17 18 19 19 18 19 19 20 21 23 23 26 26 27 28 29 30 32
11 13 14 15 19 19 19 22 20 11 12 13 11 12 13 13 15 19 19 18 18 19 19 20 21 21 23 24 24 24 24 24 23 25 26 27 28 28 30 31 33 33 32
7 6 9 10 11 13 15 18 25 23 20 17 15 14 13 13 15 20 19 18 16 19 19 19 21 23 25 24 25 27 27 26 26 26 28 30 30 29 28 29 30 30 32
8 7 6 4 4 3 1 3 5 8 9 12 12 12 14 14 12 14 13 13 14 10 14 16 18 21 22 23 21 23 26 28 28 29 29 29 29 29 27 27 27 28 28
7 5 4 3 2 1 0 0 1 1 4 9 9 8 8 10 10 12 4 9 10 10 11 14 16 16 13 12 15 14 16 18 18 21 24 26 27 26 25 26 26 27 28
4 4 4 4 4 3 2 3 5 8 8 9 8 8 7 5 3 4 9 12 12 14 13 12 13 13 13 14 14 15 16 19 20 21 22 22 22 23 24 24 25 25 28
6 6 7 7 7 6 6 7 7 9 9 9 8 8 8 6 5 7 8 10 12 13 14 15 17 18 16 15 15 15 16 18 20 21 21 20 21 23 24 23 24 24 24
5 5 6 6 7 9 10 10 11 11 11 11 11 11 11 10 12 12 12 14 15 15 17 19 20 22 23 22 22 20 19 18 19 21 22 21 21 20 21 21 23 23 25
4 3 4 4 4 6 8 9 10 11 12 11 13 13 15 16 17 19 20 21 21 21 21 22 22 22 22 22 22 22 22 22 21 21 22 23 23 23 22 19 23 23 24
6 5 4 3 2 3 3 3 3 5 7 9 10 11 11 13 14 15 16 16 17 18 20 21 21 22 22 23 22 23 22 20 22 22 22 20 21 21 21 19 18 20 22
8 7 6 6 4 4 3 3 2 1 1 3 5 7 9 11 14 15 15 15 17 17 16 17 18 19 21 22 24 24 27 25 23 24 24 25 26 27 26 26 25 23 21
8 8 7 7 7 6 6 6 5 4 3 2 1 3 4 5 7 9 11 11 12 13 15 17 19 21 23 25 25 27 29 30 28 29 32 32 33 32 35 34 34 34 33
8 9 10 9 7 6 5 4 3 2 3 4 5 5 6 8 9 10 12 13 14 16 18 20 22 23 25 27 28 30 31 31 30 29 28 30 33 36 39 40 40 40 39
11 10 9 8 7 6 5 4 4 4 5 6 6 8 10 11 12 15 17 19 21 23 24 25 26 27 28 30 32 34 35 35 33 31 32 33 35 36 38 38 39 43 45
11 11 9 8 7 6 5 5 6 7 9 10 12 13 15 17 19 20 22 23 25 26 27 28 29 29 30 30 31 33 33 35 35 36 34 34 31 33 34 35 37 40 40
11 11 12 10 8 5 4 5 7 9 12 13 14 15 16 18 19 21 23 24 25 26 27 29 31 32 33 34 34 33 33 34 34 34 33 31 30 33 38 45 43 40 40
16 14 13 12 8 5 1 2 6 9 12 15 16 16 17 19 20 22 24 26 27 28 28 29 30 31 32 33 34 35 36 36 33 31 35 37 39 40 42 43 44 44 45
20 17 14 11 10 7 4 3 4 8 12 15 16 16 17 19 21 22 25 27 27 27 27 28 30 32 33 34 35 35 35 36 36 37 36 38 42 43 42 41 41 37 39
24 23 19 13 9 7 7 5 6 9 12 14 16 16 18 19 20 22 24 26 27 27 27 27 29 31 32 32 33 33 34 35 34 34 36 39 43 45 46 48 51 54 55
27 25 22 18 15 11 8 9 9 9 11 13 14 16 18 19 21 22 24 25 28 28 28 28 29 30 30 31 32 34 35 34 32 30 34 37 40 42 44 47 49 50 51
Wind_Direction
224 229 236 241 235 240 248 254 248 244 254 253 263 280 289 270 264 249 245 249 246 248 252 267 276 278 269 265 264 267 275 286 293 298 303 308 311 312 315 316 316 319 309
225 227 237 243 240 241 248 252 252 262 263 262 267 272 273 276 253 262 256 254 252 251 247 260 272 283 269 257 264 271 281 286 291 293 296 301 307 312 315 316 315 309 302
222 225 226 232 239 242 245 247 250 258 268 260 263 269 265 261 274 272 263 258 263 264 263 266 271 268 272 276 273 276 283 288 296 301 305 309 313 320 322 327 328 322 310
260 233 220 221 231 239 240 246 251 256 263 264 263 269 269 270 272 271 270 261 264 266 271 274 277 268 270 270 273 281 284 284 295 300 302 308 313 315 321 325 323 324 323
234 201 178 180 212 241 248 252 255 257 261 265 263 264 266 267 272 273 267 261 264 262 266 272 268 268 271 271 274 275 278 284 288 296 298 304 306 309 319 322 321 321 317
225 223 221 221 211 251 258 256 253 253 259 261 265 264 267 267 263 260 266 263 266 265 268 271 271 265 264 267 277 280 280 285 286 290 293 297 301 306 312 314 316 319 318
221 227 224 224 245 272 271 274 268 272 263 270 269 261 259 263 263 261 262 265 270 273 277 276 273 268 270 274 273 275 273 274 277 285 287 291 297 301 304 304 306 305 304
199 203 219 226 234 261 267 261 256 276 304 293 299 311 319 278 261 262 262 265 269 270 272 274 275 275 271 274 274 275 274 274 275 278 280 283 286 291 295 299 299 299 300
195 220 229 241 252 270 273 263 253 262 281 291 276 303 305 283 278 261 259 256 260 266 266 269 268 271 274 273 274 276 276 279 276 276 279 282 284 285 288 292 295 299 300
130 130 140 152 191 212 298 305 255 239 257 254 258 280 281 284 269 277 265 255 258 262 275 285 293 291 282 280 279 280 278 279 279 280 279 278 280 281 282 283 289 293 297
135 138 144 153 164 169 122 343 316 40 190 190 210 218 254 265 272 277 291 301 307 308 311 300 297 303 305 309 309 308 309 305 300 297 298 293 287 284 283 282 280 280 284
186 203 209 194 202 206 191 142 154 147 154 166 175 177 186 204 228 307 323 320 317 318 316 317 315 313 319 323 315 311 310 306 304 303 303 304 301 297 294 292 291 285 275
244 238 236 237 239 231 222 220 208 204 202 202 208 217 226 247 270 284 294 300 298 299 308 312 312 313 313 311 313 316 312 312 311 308 306 304 302 298 298 301 294 293 289
238 231 237 239 232 234 237 236 236 235 238 245 254 268 279 285 282 282 283 285 287 288 291 297 300 301 303 303 301 303 307 310 312 312 311 311 310 307 303 304 304 300 292
219 208 208 218 229 234 237 238 241 250 256 263 270 277 283 287 292 295 296 295 295 298 300 301 303 303 303 301 302 302 300 303 304 303 305 310 312 311 311 316 312 307 305
213 212 210 211 211 212 212 226 236 255 257 262 275 290 301 306 311 313 313 313 311 310 308 307 308 310 311 313 313 311 309 309 311 308 304 306 307 307 308 310 307 313 308
199 199 200 197 190 172 166 167 169 144 279 298 307 308 310 313 317 317 317 317 313 312 311 312 312 313 314 313 312 309 307 307 303 302 301 298 291 295 294 295 300 301 297
181 175 169 161 158 150 139 133 124 132 123 81 28 347 338 328 320 318 319 322 316 317 323 325 325 324 321 319 316 312 307 305 301 295 293 292 290 292 291 288 285 290 290
176 158 149 143 136 131 123 116 106 75 37 23 21 10 2 354 352 347 345 345 345 342 339 335 331 328 324 320 317 313 311 309 307 303 298 296 296 292 287 286 287 285 286
170 162 151 143 136 128 115 93 72 55 36 23 14 11 6 1 1 2 2 359 356 351 346 342 337 333 329 326 322 318 315 312 310 305 298 293 291 290 289 291 291 289 286
188 183 171 159 145 131 113 92 67 47 33 22 15 12 7 6 5 3 2 360 356 353 348 345 342 339 336 332 327 322 318 313 311 308 303 294 292 294 292 290 287 287 290
197 190 183 172 163 142 105 70 47 29 22 16 11 7 7 7 5 2 0 359 356 352 349 346 344 342 338 335 331 326 321 316 314 313 306 301 299 291 287 286 288 287 287
200 191 190 189 190 189 191 21 15 6 3 2 1 359 1 1 359 359 359 357 354 352 350 346 342 338 335 332 329 327 324 322 317 310 302 298 294 285 278 278 281 283 283
204 199 194 192 196 200 222 296 329 348 347 350 351 352 348 350 353 353 354 354 350 348 346 343 339 335 331 328 326 324 320 317 314 312 311 305 300 293 279 277 281 281 280
212 210 207 203 204 220 243 275 305 320 332 336 339 344 348 347 345 346 347 348 346 344 343 342 339 334 331 328 326 322 319 314 311 309 308 306 302 299 294 289 282 278 278
218 216 217 220 225 232 252 267 287 304 319 319 325 331 335 338 341 339 339 339 342 343 340 338 336 334 332 328 328 326 322 318 310 311 313 309 308 304 299 294 290 286 283
Height
1583 1586 1588 1591 1594 1596 1599 1601 1603 1604 1606 1607 1608 1608 1609 1611 1611 1612 1613 1615 1616 1618 1619 1619 1620 1620 1619 1620 1620 1620 1620 1620 1618 1617 1615 1614 1612 1610 1608 1606 1604 1602 1600
1579 1582 1584 1587 1590 1593 1596 1599 1600 1601 1603 1605 1606 1607 1607 1608 1609 1610 1612 1614 1615 1616 1617 1618 1618 1617 1617 1617 1617 1618 1617 1617 1615 1613 1612 1610 1608 1606 1604 1601 1600 1598 1596
1575 1578 1580 1582 1585 1588 1591 1594 1596 1598 1599 1601 1603 1604 1606 1607 1607 1608 1610 1611 1613 1614 1615 1614 1615 1615 1615 1615 1615 1615 1615 1614 1613 1610 1609 1607 1605 1603 1600 1599 1597 1595 1593
1570 1576 1575 1578 1581 1584 1587 1590 1593 1595 1596 1597 1600 1601 1602 1603 1604 1605 1607 1608 1609 1610 1611 1611 1612 1612 1612 1612 1612 1612 1612 1611 1609 1608 1606 1605 1603 1601 1599 1596 1593 1591 1588
1568 1572 1573 1574 1577 1581 1584 1586 1589 1590 1592 1594 1596 1597 1599 1600 1601 1602 1603 1604 1605 1605 1606 1607 1608 1608 1608 1608 1608 1608 1607 1607 1606 1604 1603 1601 1600 1599 1597 1594 1590 1588 1586
1566 1568 1568 1570 1574 1580 1580 1583 1584 1587 1588 1589 1592 1593 1594 1596 1597 1599 1599 1601 1601 1602 1602 1603 1603 1603 1604 1604 1604 1604 1603 1602 1602 1600 1599 1597 1596 1595 1594 1591 1588 1584 1579
1564 1564 1565 1567 1572 1577 1578 1580 1582 1583 1584 1585 1588 1588 1589 1591 1593 1594 1595 1596 1597 1598 1599 1600 1600 1600 1599 1598 1599 1599 1598 1598 1597 1596 1594 1593 1591 1590 1589 1586 1584 1581 1578
1561 1562 1564 1568 1570 1572 1573 1576 1579 1580 1581 1582 1585 1586 1586 1588 1587 1589 1591 1592 1594 1594 1594 1594 1594 1594 1592 1592 1592 1592 1593 1593 1592 1591 1589 1587 1586 1585 1583 1581 1578 1576 1573
1560 1561 1562 1563 1565 1568 1569 1571 1572 1575 1577 1579 1581 1582 1582 1584 1582 1584 1585 1587 1589 1589 1588 1588 1587 1587 1586 1585 1585 1585 1584 1585 1584 1584 1582 1581 1580 1579 1578 1575 1573 1571 1567
1561 1562 1563 1564 1565 1567 1569 1569 1568 1569 1570 1574 1576 1577 1580 1579 1581 1579 1580 1581 1582 1583 1583 1583 1582 1581 1579 1578 1578 1577 1576 1576 1576 1576 1575 1573 1572 1571 1571 1569 1567 1565 1564
1562 1563 1565 1565 1566 1567 1568 1568 1569 1571 1573 1573 1574 1575 1576 1578 1580 1577 1578 1577 1580 1583 1583 1582 1580 1579 1578 1576 1575 1573 1571 1570 1570 1568 1566 1564 1563 1563 1563 1561 1561 1559 1556
1562 1563 1564 1564 1567 1568 1568 1568 1572 1573 1574 1575 1575 1576 1576 1578 1578 1575 1574 1574 1576 1580 1580 1579 1578 1576 1574 1573 1572 1569 1567 1566 1564 1563 1561 1559 1556 1555 1554 1553 1552 1550 1549
1560 1560 1562 1562 1564 1565 1567 1569 1573 1574 1574 1575 1575 1576 1576 1575 1572 1573 1573 1575 1576 1576 1576 1576 1574 1574 1571 1570 1569 1567 1564 1562 1560 1558 1556 1554 1551 1549 1547 1546 1545 1543 1540
1559 1559 1559 1561 1562 1563 1565 1567 1568 1570 1573 1573 1572 1572 1570 1570 1571 1571 1572 1573 1573 1571 1571 1571 1569 1568 1567 1564 1564 1563 1561 1558 1555 1554 1552 1550 1547 1544 1542 1540 1537 1535 1533
1557 1558 1558 1560 1561 1562 1564 1565 1566 1566 1567 1568 1568 1567 1568 1568 1567 1566 1566 1567 1566 1564 1563 1563 1563 1561 1561 1558 1556 1557 1555 1553 1551 1549 1548 1545 1541 1539 1537 1535 1532 1530 1528
1556 1557 1558 1558 1559 1562 1563 1563 1563 1563 1564 1565 1565 1564 1564 1563 1563 1562 1563 1562 1560 1558 1558 1557 1555 1555 1554 1553 1549 1549 1550 1547 1546 1544 1542 1539 1537 1534 1531 1530 1528 1525 1523
1556 1557 1558 1558 1559 1561 1562 1563 1562 1562 1563 1563 1563 1563 1562 1561 1560 1560 1559 1557 1556 1556 1554 1553 1552 1550 1548 1547 1546 1542 1544 1542 1539 1539 1537 1534 1532 1530 1527 1525 1523 1520 1516
1555 1557 1558 1558 1558 1560 1561 1563 1564 1564 1563 1563 1563 1562 1561 1560 1560 1559 1557 1555 1555 1552 1551 1549 1547 1544 1543 1541 1538 1537 1536 1535 1532 1531 1529 1528 1525 1522 1520 1517 1517 1513 1510
1554 1555 1556 1557 1558 1560 1561 1561 1562 1563 1562 1561 1560 1560 1559 1558 1555 1554 1552 1551 1550 1549 1546 1544 1542 1540 1538 1535 1533 1530 1528 1526 1523 1521 1521 1519 1516 1513 1511 1508 1505 1505 1502
1554 1555 1555 1556 1557 1559 1560 1560 1561 1560 1560 1559 1558 1557 1556 1555 1553 1550 1547 1546 1544 1541 1539 1537 1535 1533 1531 1528 1525 1522 1520 1516 1514 1513 1512 1510 1507 1505 1501 1498 1496 1493 1491
1554 1553 1554 1555 1556 1558 1559 1558 1559 1559 1558 1557 1555 1553 1552 1549 1547 1545 1543 1540 1538 1535 1533 1531 1528 1526 1523 1521 1518 1515 1512 1509 1507 1504 1502 1500 1499 1495 1492 1490 1486 1484 1480
1551 1552 1553 1553 1554 1555 1557 1556 1556 1557 1556 1555 1553 1551 1549 1547 1545 1542 1539 1537 1534 1532 1529 1525 1522 1519 1516 1513 1510 1507 1504 1501 1498 1495 1492 1490 1488 1485 1483 1480 1476 1473 1470
1548 1549 1550 1550 1552 1552 1554 1554 1554 1555 1553 1552 1550 1548 1546 1543 1541 1539 1535 1532 1529 1526 1523 1521 1518 1515 1512 1509 1505 1500 1496 1492 1489 1486 1482 1478 1474 1472 1470 1467 1465 1462 1459
1543 1545 1547 1548 1549 1550 1550 1550 1551 1551 1550 1549 1547 1545 1543 1541 1538 1535 1531 1528 1526 1523 1520 1516 1513 1509 1506 1502 1499 1495 1490 1486 1482 1476 1472 1466 1461 1458 1456 1454 1452 1448 1445
1539 1541 1543 1543 1544 1544 1545 1546 1546 1547 1545 1544 1543 1541 1539 1537 1535 1532 1529 1526 1523 1519 1515 1512 1508 1505 1501 1497 1492 1488 1483 1478 1474 1469 1463 1457 1450 1445 1441 1437 1435 1433 1431
1532 1535 1537 1538 1539 1540 1541 1542 1542 1542 1541 1540 1539 1538 1536 1534 1532 1529 1526 1523 1519 1515 1511 1507 1503 1499 1495 1490 1486 1481 1476 1470 1464 1461 1455 1448 1442 1436 1430 1424 1420 1417 1413